Time,TemperatureF,DewpointF,PressureIn,WindDirection,WindDirectionDegrees,WindSpeedMPH,WindSpeedGustMPH,Humidity,HourlyPrecipIn,Conditions,Clouds,dailyrainin,SolarRadiationWatts/m^2,SoftwareType,DateUTC
2013-10-26 00:22:00,53.0,43.0,30.16,North,357,7.0,12.0,68,-99.99,,,-99.99,0.000000,,2013-10-26 06:22:00,
2013-10-26 00:32:00,53.0,43.0,30.16,North,357,7.0,12.0,68,-99.99,,,-99.99,0.000000,,2013-10-26 06:32:00,
2013-10-26 01:30:00,53.0,46.0,30.18,West,267,4.0,5.0,75,-99.99,,,-99.99,0.000000,,2013-10-26 07:30:00,
2013-10-26 02:11:00,53.0,46.0,30.18,West,267,4.0,5.0,75,-99.99,,,-99.99,0.000000,,2013-10-26 08:11:00,
2013-10-26 02:22:00,53.0,46.0,30.18,West,267,4.0,5.0,75,-99.99,,,-99.99,0.000000,,2013-10-26 08:22:00,
2013-10-26 03:11:00,51.0,45.0,30.17,WSW,247,5.0,7.0,80,-99.99,,,-99.99,0.000000,,2013-10-26 09:11:00,
2013-10-26 04:13:00,52.0,44.0,30.17,WSW,256,5.0,6.0,74,-99.99,,,-99.99,0.000000,,2013-10-26 10:13:00,
2013-10-26 05:11:00,51.0,44.0,30.17,SSW,210,4.0,8.0,76,-99.99,,,-99.99,0.000000,,2013-10-26 11:11:00,
2013-10-26 05:21:00,51.0,44.0,30.17,SSW,210,4.0,8.0,76,-99.99,,,-99.99,0.000000,,2013-10-26 11:21:00,
2013-10-26 05:33:00,51.0,44.0,30.17,SSW,210,4.0,8.0,76,-99.99,,,-99.99,0.000000,,2013-10-26 11:33:00,
2013-10-26 05:52:00,48.0,43.0,30.18,NNW,347,5.0,9.0,83,-99.99,,,-99.99,0.000000,,2013-10-26 11:52:00,
2013-10-26 06:01:00,48.0,43.0,30.18,NNW,347,5.0,9.0,83,-99.99,,,-99.99,0.000000,,2013-10-26 12:01:00,
2013-10-26 06:52:00,47.0,43.0,30.19,North,358,2.0,4.0,86,-99.99,,,-99.99,0.000000,,2013-10-26 12:52:00,
2013-10-26 07:01:00,47.0,43.0,30.19,North,358,2.0,4.0,86,-99.99,,,-99.99,0.000000,,2013-10-26 13:01:00,
2013-10-26 08:21:00,46.0,43.0,30.20,WSW,247,1.0,3.0,88,-99.99,,,-99.99,27.889999,,2013-10-26 14:21:00,
2013-10-26 08:31:00,46.0,43.0,30.20,WSW,247,1.0,3.0,88,-99.99,,,-99.99,27.889999,,2013-10-26 14:31:00,
2013-10-26 09:12:00,53.0,44.0,30.23,SSW,209,1.0,2.0,71,-99.99,,,-99.99,154.809998,,2013-10-26 15:12:00,
2013-10-26 09:55:00,58.0,45.0,30.25,East,91,5.0,8.0,61,-99.99,,,-99.99,283.119995,,2013-10-26 15:55:00,
2013-10-26 10:05:00,58.0,45.0,30.25,East,91,5.0,8.0,61,-99.99,,,-99.99,283.119995,,2013-10-26 16:05:00,
2013-10-26 10:44:00,61.0,45.0,30.26,ENE,71,3.0,9.0,55,-99.99,,,-99.99,402.359985,,2013-10-26 16:44:00,
2013-10-26 11:12:00,64.0,44.0,30.26,WSW,252,2.0,7.0,48,-99.99,,,-99.99,475.579987,,2013-10-26 17:12:00,
2013-10-26 12:22:00,69.0,40.0,30.26,NE,36,4.0,11.0,34,-99.99,,,-99.99,605.289978,,2013-10-26 18:22:00,
2013-10-26 12:32:00,69.0,40.0,30.26,NE,36,4.0,11.0,34,-99.99,,,-99.99,605.289978,,2013-10-26 18:32:00,
2013-10-26 13:52:00,72.0,36.0,30.22,East,97,5.0,13.0,26,-99.99,,,-99.99,647.130005,,2013-10-26 19:52:00,
2013-10-26 14:12:00,73.0,36.0,30.21,WNW,300,7.0,15.0,26,-99.99,,,-99.99,628.989990,,2013-10-26 20:12:00,
2013-10-26 14:43:00,73.0,35.0,30.19,NE,43,8.0,16.0,25,-99.99,,,-99.99,600.400024,,2013-10-26 20:43:00,
2013-10-26 15:43:00,73.0,34.0,30.19,NNE,13,9.0,18.0,23,-99.99,,,-99.99,529.969971,,2013-10-26 21:43:00,
2013-10-26 16:14:00,73.0,32.0,30.18,NNE,33,9.0,16.0,22,-99.99,,,-99.99,433.739990,,2013-10-26 22:14:00,
2013-10-26 16:43:00,73.0,32.0,30.18,NE,47,4.0,11.0,22,-99.99,,,-99.99,358.429993,,2013-10-26 22:43:00,
2013-10-26 16:54:00,73.0,32.0,30.18,NE,47,4.0,11.0,22,-99.99,,,-99.99,358.429993,,2013-10-26 22:54:00,
2013-10-26 17:03:00,73.0,32.0,30.18,NE,47,4.0,11.0,22,-99.99,,,-99.99,358.429993,,2013-10-26 23:03:00,
2013-10-26 17:42:00,73.0,30.0,30.18,NE,43,8.0,14.0,20,-99.99,,,-99.99,188.279999,,2013-10-26 23:42:00,
2013-10-26 18:42:00,70.0,31.0,30.18,NE,51,7.0,14.0,23,-99.99,,,-99.99,11.160000,,2013-10-27 00:42:00,
2013-10-26 19:22:00,62.0,34.0,30.20,SW,235,3.0,5.0,35,-99.99,,,-99.99,0.000000,,2013-10-27 01:22:00,
2013-10-26 19:42:00,61.0,35.0,30.21,WSW,248,3.0,5.0,37,-99.99,,,-99.99,0.000000,,2013-10-27 01:42:00,
2013-10-26 20:12:00,59.0,36.0,30.21,SW,234,2.0,4.0,42,-99.99,,,-99.99,0.000000,,2013-10-27 02:12:00,
2013-10-26 20:21:00,59.0,36.0,30.21,SW,234,2.0,4.0,42,-99.99,,,-99.99,0.000000,,2013-10-27 02:21:00,
2013-10-26 20:32:00,59.0,36.0,30.21,SW,234,2.0,4.0,42,-99.99,,,-99.99,0.000000,,2013-10-27 02:32:00,
2013-10-26 20:52:00,60.0,36.0,30.22,SW,222,4.0,5.0,41,-99.99,,,-99.99,0.000000,,2013-10-27 02:52:00,
2013-10-26 21:02:00,60.0,36.0,30.22,SW,222,4.0,5.0,41,-99.99,,,-99.99,0.000000,,2013-10-27 03:02:00,
2013-10-26 22:02:00,-999.0,-99.9,30.25,SSE,155,8.0,14.0,-999,-99.99,,,-99.99,,,2013-10-27 04:02:00,
2013-10-26 22:13:00,61.0,38.0,30.25,SSE,155,8.0,14.0,42,-99.99,,,-99.99,0.000000,,2013-10-27 04:13:00,
2013-10-26 22:44:00,60.0,38.0,30.25,SSE,148,7.0,11.0,44,-99.99,,,-99.99,0.000000,,2013-10-27 04:44:00,
2013-10-26 23:13:00,60.0,38.0,30.26,SE,132,6.0,13.0,44,-99.99,,,-99.99,0.000000,,2013-10-27 05:13:00,